www.pogodaiklimat.ru

Погода и климат >> Архив погоды >> Эстония >> Vilsandi


ПОГОДА в Vilsandi

  • Прогноз погоды в Vilsandi
  • Монитор погоды в Vilsandi
  • Климат города

АРХИВ ПОГОДЫ в Vilsandi

Время (UTC), дата Ветер
(напр.,м/с)
 
Видим.   Явления Облачность Т
(С)
Тd
(С)
f
(%)
Тe
(С)
Тes
(С)
Комфортность P
(гПа)
Po
(гПа)
Тmin
(С)
Tmax
(С)
R
(мм)
R24
(мм)
S
(см)
01 8.08 ЮВ 3 20 км н/о +18.6 +16.9 90 +20 +20 1015.8 1015.1
02 8.08 ЮВ 2 20 км н/о +18.5 +17.5 94 +20 +20 1015.9 1015.2
03 8.08 ЮВ 2 20 км 9/4 1000 м
[Sc Ac trans Ci fib]
+18.5 +17.7 95 +20 +20 1016.1 1015.4 +17.1 +22.9
04 8.08 Ю 1 20 км н/о +18.9 +18.0 95 +21 +21 комфорт 1016.3 1015.6
05 8.08 ЮЗ 2 20 км н/о +21.9 +18.3 80 +27 +27 душно 1016.5 1015.9
06 8.08 ЮЗ 4 20 км н/о +23.0 +19.7 82 +30 +30 очень
душно
1016.6 1015.9
07 8.08 Ю 4 20 км н/о +23.7 +19.5 77 +29 +29 душно 1016.8 1016.1
08 8.08 н/о
09 8.08 Ю 5 20 км 8/1 1000 м
[Cu hum Ci fib]
+24.1 +17.8 68 +28 +33 душно 1017.4 1016.8 +17.3 +24.3
10 8.08 Ю 4 20 км н/о +24.1 +17.1 65 +28 +28 душно 1017.4 1016.7
11 8.08 Ю 5 20 км н/о +24.8 +16.7 61 +28 +28 жарко 1017.5 1016.9
12 8.08 Ю 6 20 км 8/1 1000 м
[Cu med, cong Ci fib]
+25.4 +16.9 59 +29 +32 душно 1017.3 1016.7
13 8.08 Ю 6 20 км н/о +25.5 +17.0 59 +29 +29 душно 1017.1 1016.5
14 8.08 Ю 6 20 км н/о +25.3 +16.8 59 +29 +29 душно 1017.1 1016.4
15 8.08 Ю 4
{8}
20 км 3/0
[Ci fib]
+26.0 +16.5 56 +30 +32 душно 1016.7 1016.0 +18.4 +26.3
16 8.08 Ю 5 20 км н/о +25.7 +18.3 64 +30 +30 душно 1016.5 1015.9
17 8.08 ЮВ 5 20 км н/о +24.7 +17.0 62 +28 +28 душно 1016.3 1015.6
18 8.08 Ю 5 20 км н/о +23.9 +17.8 69 +28 +28 душно 1016.8 1016.1 +22.6 +26.5
19 8.08 ЮВ 4 20 км н/о +22.4 +17.8 75 +27 +27 душно 1016.8 1016.2
20 8.08 ЮВ 4 20 км н/о +22.1 +17.3 74 +27 +27 душно 1016.7 1016.0
21 8.08 ЮВ 4 20 км 8/0
[Cs]
+21.7 +17.9 79 +26 +26 душно 1016.4 1015.7 +21.7 +26.5
22 8.08 ЮВ 4 20 км н/о +21.7 +18.3 81 +26 +26 душно 1016.1 1015.4
23 8.08 Ю 4 20 км н/о +22.7 +18.1 75 +28 +28 душно 1016.2 1015.5
00 9.08 н/о +21.7 +17.8 78 1016.0 1015.3
01 9.08 Ю 5
{9}
20 км 6/6
[]
+23.1 +17.6 71 +28 +28 душно 1016.0 1015.3 +21.4 +26.5
02 9.08 Ю 6 20 км н/о +23.0 +17.4 71 +28 +28 душно 1015.8 1015.1
03 9.08 Ю 6-8
{9}
20 км 9/0
[Cs]
+23.0 +17.4 71 +28 +28 душно 1015.8 1015.1 +21.4 +26.5
04 9.08 Ю 6 20 км н/о +23.6 +17.4 68 +27 +27 жарко 1015.9 1015.2
05 9.08 Ю 7 20 км н/о +23.4 +17.2 68 +29 +29 душно 1015.9 1015.2
06 9.08 Ю 7 20 км 9/0
[Ci fib]
+24.5 +16.9 63 +28 +29 душно 1015.8 1015.1 +21.4 +24.5
07 9.08 Ю 8 20 км н/о +24.1 +17.4 66 +28 +28 душно 1015.9 1015.3
08 9.08 н/о
09 9.08 Ю 8-11
{12}
20 км 10/0
[Cs]
+25.7 +16.9 58 +29 +31 душно 1016.6 1015.9 +21.4 +25.9
10 9.08 Ю 6-8
{11}
20 км 4/4
[]
+25.8 +17.9 62 +30 +33 душно 1016.8 1016.1 +21.6 +26.2
11 9.08 Ю 8 20 км н/о +26.3 +18.3 61 +31 +31 душно 1016.9 1016.2
12 9.08 Ю 8 20 км н/о +26.1 +19.6 67 +32 +32 очень
душно
1017.1 1016.5
13 9.08 ЮЗ 8 20 км н/о +25.2 +20.6 76 +31 +31 очень
душно
1017.4 1016.7
14 9.08 Ю 7 20 км н/о +24.5 +20.4 78 +30 +30 очень
душно
1017.2 1016.5
15 9.08 ЮЗ 8-10
{12}
20 км 9/0
[Ac As Ci fib]
+24.5 +19.8 75 +30 +30 очень
душно
1017.0 1016.3 +23.0 +26.7
16 9.08 ЮЗ 7 20 км н/о +24.7 +19.9 75 +30 +30 очень
душно
1016.8 1016.2
17 9.08 Ю 5 20 км н/о +24.0 +20.2 79 +30 +30 очень
душно
1016.9 1016.2
18 9.08 Ю 5 20 км н/о +23.2 +20.2 83 +30 +30 очень
душно
1016.8 1016.1 +23.2 +26.7
19 9.08 Ю 3 20 км н/о +23.0 +19.9 83 +30 +30 очень
душно
1017.1 1016.4
20 9.08 ЮВ 4 20 км н/о +22.3 +19.5 84 +28 +28 душно 1017.0 1016.4
21 9.08 ЮВ 4 20 км 3/0
[Ci fib]
+22.3 +18.5 79 +28 +28 душно 1016.8 1016.2 +21.9 +26.7
22 9.08 ЮВ 3 20 км н/о +21.7 +17.0 75 +26 +26 душно 1016.6 1015.9
23 9.08 ЮВ 4 20 км н/о +21.5 +17.6 78 +26 +26 душно 1016.4 1015.7
00 10.08 ЮВ 4 20 км н/о +21.8 +17.4 76 +26 +26 душно 1015.9 1015.2
01 10.08 Ю 5 20 км н/о +23.0 +17.7 72 +28 +28 душно 1015.6 1014.9
02 10.08 Ю 6 20 км н/о +23.5 +16.9 66 +27 +27 душно 1015.3 1014.6
03 10.08 Ю 7-10
{10}
20 км ясно +23.6 +16.6 65 +27 +27 жарко 1014.8 1014.2 +21.3 +24.9
04 10.08 Ю 7 20 км н/о +23.9 +16.3 62 +27 +27 жарко 1014.5 1013.8
05 10.08 Ю 8 20 км н/о +24.4 +16.3 61 +28 +28 душно 1013.9 1013.2
06 10.08 Ю 8 20 км н/о +24.8 +16.7 61 +28 +28 жарко 1013.7 1013.0 +21.3 +24.9
07 10.08 Ю 10 20 км н/о +23.9 +17.1 66 +28 +28 душно 1014.5 1013.9
08 10.08 н/о
09 10.08 Ю 8-11
{15}
12 км слабый ливневой дождь, в посл. час гроза 10/6 300 м
[Cb cap Ac As]
+21.0 +19.8 93 +26 +26 душно 1014.2 1013.5 +21.0 +25.0 0.9
10 10.08 Ю 8 20 км н/о +21.2 +19.2 88 +26 +26 душно 1014.0 1013.4 0.6
11 10.08 Ю 9 20 км н/о +22.1 +19.3 84 +28 +28 душно 1014.3 1013.6
12 10.08 Ю 8 н/о н/о +21.6 +18.9 85 +26 +26 душно 1014.3 1013.6
13 10.08 Ю 8 20 км н/о +23.2 +18.7 76 +29 +29 душно 1014.4 1013.7
14 10.08 Ю 8 20 км н/о +23.2 +20.0 82 +30 +30 очень
душно
1014.5 1013.8
15 10.08 Ю 8-11
{13}
20 км 6/6
[]
+22.8 +20.5 87 +30 +30 очень
душно
1014.5 1013.8 +20.5 +25.0
16 10.08 ЮЗ 9 20 км н/о +22.3 +18.6 80 +28 +28 душно 1014.5 1013.8
17 10.08 ЮЗ 9 20 км н/о +21.8 +18.8 83 +27 +27 душно 1014.6 1013.9
18 10.08 ЮЗ 9 20 км н/о +21.4 +18.5 84 +26 +26 душно 1014.8 1014.1 +20.5 +25.0
19 10.08 ЮЗ 10 20 км н/о +21.4 +18.4 83 +26 +26 душно 1014.9 1014.2
20 10.08 ЮЗ 10 20 км н/о +21.2 +18.5 85 +26 +26 душно 1015.0 1014.3
21 10.08 ЮЗ 10-14
{15}
20 км 10/0
[]
+21.1 +18.3 84 +25 +25 комфорт 1015.3 1014.6 +20.5 +23.8
22 10.08 ЮЗ 7 20 км н/о +21.0 +18.5 86 +25 +25 комфорт 1015.4 1014.7
23 10.08 З 7 20 км н/о +21.0 +16.0 73 +24 +24 комфорт 1015.7 1015.1
00 11.08 З 9 20 км н/о +20.7 +14.5 68 +23 +23 комфорт 1015.8 1015.1
01 11.08 З 7 20 км н/о +20.2 +13.8 67 +22 +22 комфорт 1016.4 1015.7
02 11.08 З 8 20 км н/о +19.9 +13.0 64 +21 +21 комфорт 1016.9 1016.2
03 11.08 З 7-10
{11}
20 км 3/3 1110 м
[]
+19.7 +12.7 64 +21 +21 комфорт 1017.2 1016.5 +19.6 +23.2
04 11.08 З 6 20 км н/о +19.8 +12.5 63 +21 +21 комфорт 1017.5 1016.8
05 11.08 З 6 20 км н/о +19.5 +11.6 60 +20 +20 1017.9 1017.2
06 11.08 З 6 20 км н/о +20.3 +12.5 61 +22 +22 комфорт 1018.1 1017.4 +19.3 +21.5
07 11.08 ЮЗ 5 20 км н/о +20.2 +13.0 63 +22 +22 комфорт 1018.2 1017.6
08 11.08 З 4
{9}
20 км 9/9 1000 м
[]
+20.7 +12.5 59 +23 +24 комфорт 1018.3 1017.6 +19.3 +21.3
09 11.08 ЮЗ 5-8
{9}
20 км 9/9 930 м
[]
+20.8 +12.6 59 +23 +24 комфорт 1018.3 1017.6 +19.3 +21.8
10 11.08 ЮЗ 4 20 км н/о +21.0 +12.9 60 +24 +24 комфорт 1018.3 1017.6
11 11.08 ЮЗ 5 20 км н/о +21.2 +11.5 54 +23 +23 комфорт 1017.9 1017.3
12 11.08 ЮЗ 4 20 км н/о +20.8 +12.1 57 +23 +23 комфорт 1017.5 1016.8
13 11.08 ЮЗ 6 20 км н/о +21.0 +12.5 58 +23 +23 комфорт 1017.0 1016.3
14 11.08 ЮЗ 6 20 км н/о +20.3 +12.9 62 +22 +22 комфорт 1016.5 1015.8
15 11.08 ЮЗ 5
{10}
20 км 6/6
[]
+20.2 +13.5 65 +22 +23 комфорт 1015.6 1014.9 +19.3 +22.4
16 11.08 ЮЗ 5 20 км н/о +19.8 +13.2 66 +21 +21 комфорт 1014.9 1014.2
17 11.08 ЮЗ 5 20 км н/о +19.9 +13.1 65 +22 +22 комфорт 1014.4 1013.8
18 11.08 ЮЗ 5 20 км н/о +19.5 +13.7 69 +21 +21 комфорт 1014.0 1013.3 +19.5 +22.4
19 11.08 ЮЗ 5 20 км н/о +19.3 +13.2 68 +20 +20 1013.3 1012.6
20 11.08 Ю 5 20 км н/о +19.1 +13.5 70 +20 +20 1012.5 1011.8
21 11.08 Ю 5 20 км 8/8
[]
+19.2 +11.6 61 +20 +20 1011.7 1011.0 +19.0 +22.4
22 11.08 Ю 4 20 км н/о +18.6 +15.7 83 +19 +19 1010.8 1010.2
23 11.08 Ю 9 20 км н/о +18.6 +15.3 81 +18 +18 1009.8 1009.1
00 12.08 н/о +16.3 +10.7 69 -2 -2 1009.1 1008.5
01 12.08 Ю 6-8
{13}
20 км слаб. ливневой дождь 10/0 2000 м
[]
+17.2 +11.6 70 +16 +16 1008.1 1007.5 +16.1 +21.2 1
02 12.08 Ю 8 15 км н/о +16.0 +12.1 78 +14 +14 1007.1 1006.5 0.5
03 12.08 ЮВ 4
{11}
20 км слаб. ливневой дождь 9/0 2000 м
[]
+14.2 +11.4 83 +13 +13 1006.0 1005.4 +14.2 +20.4 1
04 12.08 ЮВ 3 5000 м н/о +13.2 +12.3 94 +12 +12 1005.8 1005.1 5
05 12.08 В 3 20 км н/о +13.8 +12.0 89 +13 +13 1003.8 1003.1 2
06 12.08 ЮВ 4 20 км н/о +16.4 +14.3 87 +16 +16 1002.1 1001.5 +12.7 +19.5 0.2
07 12.08 З 7 2700 м н/о +13.2 +12.1 93 +11 +11 1002.1 1001.4 6
08 12.08 ЮЗ 7-11
{14}
20 км слаб. ливневой дождь 9/4 420 м
[]
+16.9 +13.1 78 +16 +17 1002.0 1001.3 +12.7 +19.5 8
09 12.08 З 8-11
{14}
20 км в посл. час дождь {ливн. осадки} 6/3 570 м
[]
+17.8 +13.1 74 +17 +18 1002.3 1001.7 +12.7 +19.5 7
10 12.08 З 7 20 км н/о +17.3 +12.2 72 +16 +16 1002.9 1002.2
11 12.08 ЮЗ 8 20 км н/о +17.1 +12.6 75 +16 +16 1003.0 1002.3
12 12.08 З 7 20 км н/о +17.9 +12.9 73 +17 +17 1003.1 1002.4 2
13 12.08 З 7 20 км н/о +17.1 +12.4 74 +16 +16 1003.1 1002.4
14 12.08 З 9 20 км н/о +17.7 +12.7 73 +17 +17 1003.1 1002.5 3
15 12.08 З 10-15
{15}
20 км {ливн. осадки} 8/8 750 м
[]
+17.0 +13.5 80 +15 +15 1003.3 1002.6 +12.7 +18.7 3
16 12.08 З 10 20 км н/о +17.7 +13.3 75 +16 +16 1003.5 1002.9
17 12.08 З 10 20 км н/о +17.1 +13.2 78 +16 +16 1003.8 1003.2 0.7
18 12.08 З 11 20 км н/о +16.9 +13.1 78 +15 +15 1004.0 1003.3 +13.0 +18.7 3
19 12.08 З 10 20 км н/о +17.3 +12.6 74 +16 +16 1004.1 1003.5
20 12.08 З 10 20 км н/о +17.0 +12.5 75 +15 +15 1004.2 1003.5
21 12.08 З 10-15
{17}
6000 м ливневой дождь 10/10 870 м
[]
+15.8 +14.0 89 +14 +14 1004.3 1003.7 +14.4 +18.7 2
22 12.08 З 9 20 км н/о +16.5 +13.0 80 +15 +15 1004.6 1003.9 3
23 12.08 З 7 4000 м н/о +15.2 +13.9 92 +13 +13 1004.4 1003.7 3
00 13.08 СЗ 7 20 км н/о +15.8 +12.7 82 +14 +14 1005.0 1004.3 3
01 13.08 СЗ 8 16 км н/о +15.1 +13.3 89 +13 +13 1006.1 1005.4 2
02 13.08 СЗ 6 10 км н/о +15.3 +13.7 90 +14 +14 1006.6 1006.0 4
03 13.08 СЗ 7-10
{15}
13 км слаб. дождь {ливн. осадки} 10/10 1170 м
[]
+15.0 +13.1 88 +13 +13 1007.1 1006.4 +14.4 +18.1 12
04 13.08 СЗ 6 6000 м н/о +13.9 +10.3 79 +12 +12 1007.7 1007.0 6
05 13.08 ЮЗ 4 20 км н/о +14.9 +12.1 83 +14 +14 1007.9 1007.3 3
06 13.08 СЗ 5 н/о н/о +17.1 +12.1 72 +16 +16 1008.3 1007.6 +12.8 +17.4
07 13.08 СЗ 5 20 км н/о +17.4 +11.5 68 +17 +17 1008.8 1008.1
08 13.08 СЗ 5 20 км 1/1 1050 м
[]
+18.7 +11.6 63 +19 +23 1009.3 1008.6 +12.8 +18.7
09 13.08 СЗ 5 20 км ясно +18.6 +10.3 58 +19 +24 1009.7 1009.0 +12.8 +18.8
10 13.08 СЗ 5 20 км н/о +19.2 +11.8 62 +20 +20 1009.8 1009.2
11 13.08 З 5 20 км н/о +18.7 +10.0 57 +19 +19 1010.1 1009.5
12 13.08 З 4 н/о н/о +19.0 +10.7 59 +20 +20 1010.3 1009.6
13 13.08 З 5 н/о н/о +18.8 +11.1 61 +19 +19 1010.4 1009.8
14 13.08 З 4 н/о н/о +18.5 +11.3 63 +19 +19 1010.5 1009.8
15 13.08 З 4 н/о 1/1 930 м
[]
+18.9 +11.1 61 +20 +22 1010.5 1009.9 +12.8 +19.6
16 13.08 З 4 20 км н/о +18.4 +11.2 63 +19 +19 1010.5 1009.8
17 13.08 З 3 20 км н/о +17.9 +11.8 67 +18 +18 1010.6 1009.9
18 13.08 З 4 20 км н/о +17.2 +11.7 70 +17 +17 1010.9 1010.2 +16.7 +19.6
19 13.08 З 3 20 км н/о +17.0 +10.7 66 +17 +17 1010.9 1010.3
20 13.08 З 2 20 км н/о +16.7 +10.8 68 +17 +17 1011.1 1010.4
21 13.08 ЮЗ 2 20 км ясно +16.5 +10.9 69 +17 +17 1011.2 1010.5 +16.5 +19.6
22 13.08 ЮЗ 2 20 км н/о +15.9 +10.7 71 +16 +16 1011.3 1010.6
23 13.08 ЮЗ 1 20 км н/о +14.0 +10.6 80 +14 +14 1011.4 1010.7
00 14.08 ЮЗ 1 20 км н/о +13.8 +10.7 82 +14 +14 1011.5 1010.8
01 14.08 Ю 1 20 км н/о +12.6 +10.7 88 +13 +13 1011.6 1010.9
02 14.08 ЮВ 2 20 км н/о +13.1 +11.5 90 +12 +12 1011.7 1011.0
03 14.08 ЮВ 3 20 км ясно +13.8 +11.6 87 +13 +13 1011.5 1010.9 +11.4 +19.0
04 14.08 ЮВ 3 20 км н/о +14.6 +12.6 88 +14 +14 1011.8 1011.1
05 14.08 ЮВ 2 20 км н/о +15.9 +13.4 85 +16 +16 1011.6 1010.9
06 14.08 ЮВ 3 20 км н/о +17.5 +12.9 74 +18 +18 1011.5 1010.9 +11.4 +17.5
07 14.08 ЮВ 3 20 км н/о +18.1 +12.6 70 +18 +18 1011.5 1010.8
08 14.08 Ю 4 20 км 9/0
[]
+18.6 +11.8 65 +19 +22 1011.5 1010.8 +11.4 +19.1
09 14.08 Ю 4 20 км 10/0
[]
+18.5 +12.0 66 +19 +22 1011.4 1010.7 +11.4 +19.1
10 14.08 ЮВ 4 20 км н/о +18.2 +12.6 70 +18 +18 1011.3 1010.6
11 14.08 ЮВ 5 20 км н/о +18.1 +13.6 75 +18 +18 1011.0 1010.4
12 14.08 ЮВ 4 20 км н/о +18.0 +14.1 78 +18 +18 1010.6 1010.0
13 14.08 ЮВ 4 20 км н/о +18.2 +13.3 73 +18 +18 1010.2 1009.5
14 14.08 В 3 20 км н/о +18.3 +13.5 74 +19 +19 1009.7 1009.1
15 14.08 ЮВ 4 20 км слаб. дождь 10/10 1080 м
[]
+17.2 +14.2 83 +17 +17 1009.4 1008.8 +13.7 +19.1
16 14.08 В 3 20 км н/о +16.5 +14.6 89 +16 +16 1009.1 1008.4
17 14.08 В 3 10 км н/о +15.8 +14.7 93 +15 +15 1008.8 1008.2 0.9
18 14.08 В 3 16 км н/о +15.8 +15.2 96 +15 +15 1008.8 1008.1 +15.6 +19.1 1
19 14.08 В 3 8000 м н/о +15.9 +15.5 97 +15 +15 1008.5 1007.9 0.5
20 14.08 ЮВ 5 15 км н/о +16.4 +15.8 96 +15 +15 1008.1 1007.4 0.9
21 14.08 ЮВ 3
{8}
12 км слаб. ливневой дождь 10/10 150 м
[]
+16.1 +15.6 97 +16 +16 1007.5 1006.8 +15.6 +18.6 2
22 14.08 В 3 12 км н/о +15.7 +15.3 97 +15 +15 1007.3 1006.6 0.1
23 14.08 В 3 18 км н/о +15.7 +15.4 98 +15 +15 1006.8 1006.1 0.7
00 15.08 н/о

 

Местоположение метеостанции Vilsandi (Эстония): широта 58.38 долгота 21.82 высота над уровнем моря 6 м.

В архиве по умолчанию представлена погода в Vilsandi за последнюю неделю. Архивные данные за месяц целиком и за предыдущие месяцы, начиная с января 2011 года, Вы можете получить, выбрав интересующий диапазон дат из раскрывающегося списка и нажав кнопку "Ввод!".


*Определитесь, кто Вы:
робот инопланетянин человек

Внимание! Время в таблицах - всемирное. Для получения местного времени необходимо прибавить поправку, которая в Vilsandi равна 2 ч.

Смотрите также архив погоды в соседних городах и на ближайших метеорологических станциях:

Погода в S?rve (Эстония) (53 км)
Погода в Ristna (Эстония) (62 км)
Погода в Kolka (Латвия) (84 км)
Погода в Virtsu (Эстония) (101 км)
Погода в Ruhnu Saar (Эстония) (104 км)
Погода в Ventspils (Латвия) (110 км)
Погода в Kihnu (Эстония) (130 км)
Погода в Nigula (Эстония) (132 км)
Погода в M?rsrags (Латвия) (138 км)
Погода в Stende (Латвия) (140 км)

Пояснения к столбцам:

Ветер - указаны скорость ветра в м/с - средняя за 10 мин, порывы в срок и между сроками (в фигурных скобках) и направление, откуда дует ветер: С - северный, СВ - северо-восточный, В - восточный, ЮВ - юго-восточный, Ю - южный, ЮЗ - юго-западный, З - западный, СЗ - северо-западный.
Видимость - горизонтальная дальность видимости в метрах или километрах. При видимости от 1 до 10 км при отсутствии осадков обычно наблюдается дымка, при ухудшении видимости до 1 км и менее - туман. В сухую погоду видимость может ухудшаться дымом, пылью или мглою.
Явления - указаны атмосферные явления, наблюдавшиеся в срок или в последний час перед сроком; фигурными скобками обозначены явления, наблюдавшиеся между сроками (за 1-3 часа до срока); квадратными скобками обозначены град или гололедные отложения с указанием их диаметра в мм.
Облачность - указаны через наклонную черту общая и нижняя облачность в баллах и высота нижней границы облаков в метрах; квадратными скобками обозначены формы облаков: Ci - перистые, Cs - перисто-слоистые, Cc - перисто-кучевые, Ac - высококучевые, As - высокослоистые, Sc - слоисто-кучевые, Ns - слоисто-дождевые, Cu - кучевые, Cb - кучево-дождевые. Подробнее классификацию облаков см. в Атласе облаков (PDF).
T - Температура воздуха - температура, измеренная на высоте 2 м над землей.
Td - Температура точки росы - температура, при понижении до которой содержащийся в воздухе водяной пар достигнет насыщения.
f - Относительная влажность воздуха - влажноcть воздуха, измеренная на высоте 2 м над землей.
Te - Эффективная температура - температура, которую ощущает одетый по сезону человек в тени. Характеристика душности погоды. При расчете учитывается влияние влажности воздуха и скорости ветра на теплоощущения человека.
Tes - Эффективная температура на солнце - температура, которую ощущает человек, с поправкой на солнечный нагрев. Характеристика знойности погоды. Зависит от высоты солнца над горизонтом, облачности и скорости ветра. Ночью, в пасмурную погоду, а также при ветре 12 м/с и более поправка равна нулю.
P - Атмосферное давление - приведенное к уровню моря атмосферное давление.
Po - Атмосферное давление - измеренное на уровне метеостанции атмосферное давление.
Tmin - Минимальная температура - минимум температуры воздуха на высоте 2 м над землей.
Tmax - Максимальная температура - максимум температуры воздуха на высоте 2 м над землей.
R - Количество осадков - Количество выпавших осадков за период времени, мм. При наведении курсора мыши на число - период времени, за который выпало указанное количество осадков.
R24 - Количество осадков - Количество выпавших осадков за 24 часа, мм.
S - Снежный покров - Высота снежного покрова, см. При наведении курсора мыши на число - состояние снежного покрова и степень покрытия местности в баллах.